sat.trackr.live / text

‹ back to catalog

ICEYE-X67

NORAD 66302 · 2025-248K

PAYLOAD ACTIVE UNKNOWN

§ Identity

Operator
Country
UAE
Launch date
2025-11-02
Launch site
AFETR
Launch vehicle
Mass (kg)
RCS (m²)

External: N2YO · Heavens-Above · Gunter

§ Orbital elements

Epoch: 2026-09-20T04:17:09.242016Z

Period
95.40 min
Inclination
45.4068°
Eccentricity
0.0006631
Mean motion
15.09456497 rev/d
Perigee alt
533.3 km
Apogee alt
542.4 km
Semi-major
6,916.0 km
B*
1.4745e-4
RAAN
352.5535°
Arg perigee
206.5391°
Mean anomaly
153.5153°
Rev number
4,987

§ Raw data

ICEYE-X671 66302U 25248K   26263.17857919  .00002146  00000+0  14745-3 0  99902 66302  45.4068 352.5535 0006631 206.5391 153.5153 15.09456497 49877

JSON: /api/v1/satellites/66302 · /tle

For live sub-satellite position, see the globe view (requires WebGL).

§ Visibility from observer

Set your observer location to see the next 7 days of passes ≥ 10°. The values pass through the URL so the page stays shareable.

No JS? Fill the form by hand. The geolocation button needs JavaScript.